SWA4074 KSAN-PHNL

Flight info

Callsign SWA4074
Flight time N/A
Altitude 34000
Route PADRZ2 IKAYE RZS DINTY ADUMM BARAZ R464 BITTA MAGGI3
Aircraft B38M/M-SADE2E3GHIJ4J7P2RWZ/LB1D1

Departure

Time 2026-05-01 15:23
Airport San Diego International Airport (KSAN)

Arrival

Time N/A
Airport Daniel K. Inouye International Airport (PHNL)
Time Latitude Longitude Altitude Speed Heading
2026-05-01 15:03 32.73349 -117.20055 28 ft 0 kts 262°
2026-05-01 15:15 32.73355 -117.20003 29 ft 4 kts 271°
2026-05-01 15:15 32.73325 -117.19989 28 ft 4 kts 13°
2026-05-01 15:16 32.73318 -117.19991 28 ft 0 kts 13°
2026-05-01 15:19 32.73409 -117.19967 29 ft 11 kts 12°
2026-05-01 15:19 32.73459 -117.19815 29 ft 17 kts 106°
2026-05-01 15:19 32.73414 -117.19631 29 ft 27 kts 106°
2026-05-01 15:20 32.73304 -117.19174 26 ft 30 kts 105°
2026-05-01 15:20 32.73247 -117.18940 29 ft 29 kts 106°
2026-05-01 15:20 32.73190 -117.18709 32 ft 29 kts 106°
2026-05-01 15:21 32.73134 -117.18472 30 ft 31 kts 105°
2026-05-01 15:21 32.73074 -117.18227 29 ft 31 kts 107°
2026-05-01 15:21 32.73012 -117.17973 29 ft 32 kts 105°
2026-05-01 15:21 32.72957 -117.17766 29 ft 14 kts 107°
2026-05-01 15:22 32.72989 -117.17615 29 ft 8 kts 36°
2026-05-01 15:22 32.73038 -117.17661 30 ft 17 kts 287°
2026-05-01 15:22 32.73134 -117.18056 29 ft 89 kts 285°
2026-05-01 15:23 32.73376 -117.19047 28 ft 158 kts 286°
2026-05-01 15:23 32.73729 -117.20464 364 ft 187 kts 287°
2026-05-01 15:23 32.74100 -117.21965 1263 ft 193 kts 287°
2026-05-01 15:23 32.74689 -117.23435 1915 ft 205 kts 303°
2026-05-01 15:24 32.75581 -117.24885 2362 ft 230 kts 307°
2026-05-01 15:24 32.76576 -117.26456 2881 ft 248 kts 306°
2026-05-01 15:24 32.77602 -117.28131 3818 ft 249 kts 306°
2026-05-01 15:24 32.78621 -117.29791 4628 ft 254 kts 307°
2026-05-01 15:25 32.79655 -117.31456 5671 ft 248 kts 308°
2026-05-01 15:25 32.80718 -117.33130 6341 ft 261 kts 308°
2026-05-01 15:25 32.81833 -117.34889 6946 ft 271 kts 307°
2026-05-01 15:25 32.82972 -117.36683 7801 ft 272 kts 308°
2026-05-01 15:26 32.84160 -117.38492 8476 ft 281 kts 309°
2026-05-01 15:26 32.85366 -117.40328 9341 ft 282 kts 309°
2026-05-01 15:26 32.86594 -117.42184 10010 ft 290 kts 309°
2026-05-01 15:26 32.87864 -117.44125 10469 ft 305 kts 308°
2026-05-01 15:27 32.89204 -117.46191 10749 ft 325 kts 308°
2026-05-01 15:27 32.90617 -117.48380 11082 ft 341 kts 308°
2026-05-01 15:27 32.92084 -117.50659 11620 ft 349 kts 308°
2026-05-01 15:28 32.95024 -117.55236 13110 ft 352 kts 308°
2026-05-01 15:28 32.96514 -117.57559 13859 ft 354 kts 309°
2026-05-01 15:28 32.98014 -117.59900 14500 ft 356 kts 308°
2026-05-01 15:29 33.00777 -117.64825 15768 ft 362 kts 291°
2026-05-01 15:29 33.01520 -117.67715 16356 ft 368 kts 284°
2026-05-01 15:29 33.02256 -117.73806 17561 ft 374 kts 280°
2026-05-01 15:30 33.02971 -117.79992 18669 ft 379 kts 280°
2026-05-01 15:31 33.04405 -117.92574 20740 ft 387 kts 279°
2026-05-01 15:31 33.05129 -117.98965 21728 ft 391 kts 279°
2026-05-01 15:32 33.05852 -118.05383 22680 ft 395 kts 279°
2026-05-01 15:32 33.06584 -118.11918 23552 ft 400 kts 279°
2026-05-01 15:33 33.07692 -118.21854 24753 ft 405 kts 279°
2026-05-01 15:34 33.08804 -118.31907 25916 ft 409 kts 279°